period_start,C,m1,H,J0,J1,J2,J3,J4,J5,JA,JB,JC,JD,JJ,JK,JN,#
2013-11-06 00:00:58,0.07,0.47,0.00,19.15,20.42,23.34,5.94,32.00,1007.31,2073.99,3372.91,3251.00,3514.24,349.23,324.22,8.02,0000 0000 0000 0000 000000
2013-11-06 00:01:58,0.05,0.47,0.00,19.15,20.42,23.36,6.05,31.46,1007.36,2073.99,3372.69,3250.97,3514.09,349.81,325.25,8.03,0000 0000 0000 0000 000000
2013-11-06 00:02:58,0.05,0.47,0.00,19.13,20.42,23.35,6.04,31.54,1007.63,2073.99,3372.32,3250.83,3514.03,350.34,325.66,8.04,0000 0000 0000 0000 000000
2013-11-06 00:03:58,0.08,0.47,0.00,19.14,20.42,23.42,5.82,31.63,1007.81,2073.99,3372.12,3250.44,3513.99,348.92,324.40,8.04,0000 0000 0000 0000 000000
2013-11-06 00:04:59,0.13,0.48,0.00,19.14,20.42,23.35,5.93,31.29,1007.90,2073.99,3372.04,3250.17,3513.88,350.29,325.69,8.05,0000 0000 0000 0000 000000
2013-11-06 00:05:59,0.07,0.48,0.00,19.14,20.42,23.34,5.98,31.42,1008.09,2073.99,3372.01,3250.08,3513.55,350.40,325.86,8.05,0000 0000 0000 0000 000000
2013-11-06 00:06:59,0.06,0.48,0.00,19.14,20.42,23.43,5.99,31.13,1008.27,2073.99,3371.97,3250.03,3513.23,350.20,325.73,8.06,0000 0000 0000 0000 000000
2013-11-06 00:07:59,0.05,0.48,0.00,19.15,20.43,23.37,6.07,31.25,1008.32,2073.98,3371.69,3250.01,3513.09,350.48,326.00,8.06,0000 0000 0000 0000 000000
2013-11-06 00:09:00,0.05,0.48,0.00,19.17,20.44,23.36,6.02,30.71,1008.34,2073.99,3371.30,3250.00,3513.03,350.39,325.90,8.07,0000 0000 0000 0000 000000
2013-11-06 00:10:00,0.06,0.48,0.00,19.17,20.44,23.39,5.96,31.00,1008.35,2073.98,3371.11,3249.94,3513.01,350.00,325.55,8.08,0000 0000 0000 0000 000000
2013-11-06 00:11:00,0.02,0.48,0.00,19.18,20.44,23.39,6.03,30.79,1008.38,2073.99,3371.04,3249.80,3513.00,350.18,325.70,8.08,0000 0000 0000 0000 000000
2013-11-06 00:12:00,0.04,0.48,0.00,19.18,20.44,23.40,6.06,30.75,1008.36,2073.98,3371.01,3249.47,3512.95,349.94,325.48,8.09,0000 0000 0000 0000 000000
2013-11-06 00:13:00,0.08,0.48,0.00,19.20,20.44,23.36,5.98,30.92,1008.34,2073.99,3370.81,3249.21,3512.75,350.11,325.53,8.09,0000 0000 0000 0000 000000
2013-11-06 00:14:01,0.12,0.48,0.00,19.21,20.44,23.36,5.80,30.96,1008.33,2073.99,3370.40,3249.09,3512.37,348.60,324.19,8.10,0000 0000 0000 0000 000000
2013-11-06 00:15:01,0.13,0.48,0.00,19.22,20.45,23.43,5.95,31.04,1008.34,2073.98,3370.15,3249.03,3512.15,350.36,325.82,8.11,0000 0000 0000 0000 000000
2013-11-06 00:16:01,0.06,0.48,0.00,19.22,20.45,23.37,6.03,31.21,1008.44,2073.99,3370.05,3249.01,3512.05,350.04,325.55,8.11,0000 0000 0000 0000 000000
2013-11-06 00:17:01,0.03,0.48,0.00,19.22,20.46,23.37,6.00,30.71,1008.67,2073.99,3370.02,3248.99,3512.02,349.72,325.32,8.12,0000 0000 0000 0000 000000
2013-11-06 00:18:02,0.01,0.48,0.00,19.24,20.47,23.41,6.03,30.88,1008.68,2073.98,3370.00,3248.95,3512.00,349.71,325.04,8.12,0000 0000 0000 0000 000000
2013-11-06 00:19:02,0.00,0.48,0.00,19.23,20.47,23.39,5.82,30.67,1008.52,2073.98,3369.73,3248.82,3511.97,349.10,324.89,8.13,0000 0000 0000 0000 000000
2013-11-06 00:20:02,0.07,0.48,0.00,19.21,20.47,23.39,5.98,31.04,1008.48,2073.98,3369.31,3248.38,3511.63,349.22,325.23,8.13,0000 0000 0000 0000 000000
2013-11-06 00:21:02,0.22,0.48,0.00,19.22,20.47,23.38,6.10,31.29,1008.44,2073.94,3369.12,3248.17,3511.32,351.59,327.00,8.14,0000 0000 0000 0000 000000
2013-11-06 00:22:03,0.05,0.48,0.00,19.25,20.47,23.38,6.04,30.83,1008.48,2073.95,3369.04,3248.08,3511.13,349.92,325.80,8.15,0000 0000 0000 0000 000000
2013-11-06 00:23:03,0.05,0.48,0.00,19.25,20.47,23.39,5.82,31.25,1008.35,2073.95,3369.01,3248.03,3511.05,348.64,324.43,8.15,0000 0000 0000 0000 000000
2013-11-06 00:24:03,0.03,0.48,0.00,19.26,20.47,23.38,6.02,31.08,1008.38,2073.96,3369.00,3248.01,3511.00,349.66,325.13,8.16,0000 0000 0000 0000 000000
2013-11-06 00:25:03,0.01,0.48,0.00,19.28,20.48,23.42,5.97,31.17,1008.35,2073.97,3368.98,3247.99,3510.97,350.13,325.55,8.16,0000 0000 0000 0000 000000
2013-11-06 00:26:04,0.01,0.48,0.00,19.28,20.49,23.42,5.99,31.38,1008.32,2073.95,3368.79,3247.97,3510.80,350.49,326.14,8.17,0000 0000 0000 0000 000000
2013-11-06 00:27:04,0.04,0.48,0.00,19.28,20.49,23.40,5.99,31.29,1008.32,2073.92,3368.43,3247.89,3510.53,349.40,324.86,8.18,0000 0000 0000 0000 000000
2013-11-06 00:28:04,0.07,0.48,0.00,19.29,20.49,23.37,6.05,31.63,1008.32,2073.94,3368.20,3247.61,3510.25,349.89,325.30,8.18,0000 0000 0000 0000 000000
2013-11-06 00:29:04,0.14,0.48,0.00,19.28,20.49,23.39,6.05,30.96,1008.32,2073.92,3368.08,3247.32,3510.11,351.25,326.57,8.19,0000 0000 0000 0000 000000
2013-11-06 00:30:05,0.06,0.48,0.00,19.30,20.49,23.41,5.92,31.17,1008.30,2073.87,3368.03,3247.15,3510.05,348.88,324.35,8.19,0000 0000 0000 0000 000000
2013-11-06 00:31:05,0.02,0.48,0.00,19.31,20.49,23.39,5.99,31.29,1008.26,2073.84,3368.00,3247.05,3510.02,350.24,325.58,8.20,0000 0000 0000 0000 000000
2013-11-06 00:32:05,-0.01,0.48,0.00,19.31,20.50,23.42,5.89,30.88,1008.30,2073.75,3367.94,3247.02,3510.00,349.69,325.53,8.20,0000 0000 0000 0000 000000
2013-11-06 00:33:05,-0.03,0.48,0.00,19.31,20.50,23.47,5.93,31.08,1008.26,2073.70,3367.74,3246.99,3509.92,349.80,325.17,8.21,0000 0000 0000 0000 000000
2013-11-06 00:34:05,0.01,0.48,0.00,19.33,20.51,23.45,5.85,31.08,1008.25,2073.68,3367.35,3246.98,3509.66,349.78,325.13,8.22,0000 0000 0000 0000 000000
2013-11-06 00:35:05,0.05,0.48,0.00,19.32,20.52,23.43,6.00,30.96,1008.27,2073.72,3367.15,3246.93,3509.36,350.79,326.09,8.22,0000 0000 0000 0000 000000
2013-11-06 00:36:05,0.13,0.49,0.00,19.33,20.52,23.42,6.07,30.83,1008.24,2073.71,3367.05,3246.79,3509.14,351.54,326.77,8.23,0000 0000 0000 0000 000000
2013-11-06 00:37:06,0.06,0.49,0.00,19.31,20.52,23.49,6.04,31.38,1008.19,2073.64,3367.00,3246.48,3509.05,349.50,324.71,8.23,0000 0000 0000 0000 000000
2013-11-06 00:38:06,0.01,0.49,0.00,19.32,20.52,23.47,5.98,30.88,1008.27,2073.59,3366.99,3246.22,3509.02,350.32,325.65,8.24,0000 0000 0000 0000 000000
2013-11-06 00:39:06,0.01,0.49,0.00,19.33,20.52,23.44,5.93,31.13,1008.28,2073.47,3366.88,3246.08,3509.00,349.53,325.23,8.25,0000 0000 0000 0000 000000
2013-11-06 00:40:06,-0.04,0.49,0.00,19.36,20.52,23.44,6.09,30.79,1008.27,2073.36,3366.46,3246.02,3508.87,350.81,325.96,8.25,0000 0000 0000 0000 000000
2013-11-06 00:41:07,-0.01,0.49,0.00,19.35,20.53,23.51,6.02,31.08,1008.24,2073.25,3366.20,3246.00,3508.47,349.66,324.99,8.26,0000 0000 0000 0000 000000
2013-11-06 00:42:07,0.01,0.49,0.00,19.33,20.54,23.45,5.88,31.46,1008.20,2073.15,3366.07,3245.97,3508.19,349.95,325.27,8.26,0000 0000 0000 0000 000000
2013-11-06 00:43:07,-0.01,0.49,0.00,19.37,20.54,23.45,5.93,30.88,1008.25,2073.16,3366.02,3245.87,3508.07,350.26,325.32,8.27,0000 0000 0000 0000 000000
2013-11-06 00:44:07,0.07,0.49,0.00,19.37,20.54,23.45,5.96,31.04,1008.24,2073.18,3366.00,3245.55,3508.03,349.96,325.46,8.27,0000 0000 0000 0000 000000
2013-11-06 00:45:07,0.09,0.49,0.00,19.37,20.54,23.51,5.93,30.79,1008.24,2073.14,3365.91,3245.24,3508.00,350.33,325.69,8.28,0000 0000 0000 0000 000000
2013-11-06 00:46:07,0.06,0.49,0.00,19.37,20.54,23.44,6.07,31.04,1008.20,2073.13,3365.59,3245.10,3507.98,349.38,324.91,8.29,0000 0000 0000 0000 000000
2013-11-06 00:47:08,0.05,0.49,0.00,19.38,20.54,23.43,6.07,31.08,1008.23,2073.07,3365.27,3245.04,3507.90,350.24,324.92,8.29,0000 0000 0000 0000 000000
2013-11-06 00:48:08,0.02,0.49,0.00,19.40,20.55,23.48,5.93,30.83,1008.24,2073.06,3365.10,3245.01,3507.56,349.96,324.89,8.30,0000 0000 0000 0000 000000
2013-11-06 00:49:08,0.06,0.49,0.00,19.40,20.56,23.47,6.07,31.13,1008.25,2073.06,3365.03,3245.00,3507.28,351.31,326.47,8.30,0000 0000 0000 0000 000000
2013-11-06 00:50:08,0.04,0.49,0.00,19.41,20.57,23.45,5.92,31.17,1008.20,2073.04,3365.00,3244.98,3507.11,349.07,324.36,8.31,0000 0000 0000 0000 000000
2013-11-06 00:51:09,0.01,0.49,0.00,19.41,20.57,23.54,5.89,30.92,1008.18,2073.03,3364.89,3244.86,3507.04,350.64,325.82,8.32,0000 0000 0000 0000 000000
2013-11-06 00:52:09,0.03,0.49,0.00,19.41,20.57,23.49,5.98,30.71,1008.11,2073.04,3364.55,3244.63,3507.01,350.54,325.69,8.32,0000 0000 0000 0000 000000
2013-11-06 00:53:09,0.12,0.49,0.00,19.44,20.57,23.53,6.05,31.08,1008.15,2073.03,3364.25,3244.31,3506.98,351.32,326.41,8.33,0000 0000 0000 0000 000000
2013-11-06 00:54:10,0.11,0.49,0.00,19.44,20.57,23.51,5.87,30.96,1007.95,2073.01,3364.11,3244.13,3506.86,349.04,324.22,8.33,0000 0000 0000 0000 000000
2013-11-06 00:55:10,0.06,0.49,0.00,19.45,20.57,23.59,6.11,31.21,1008.02,2073.02,3364.03,3244.05,3506.47,350.99,326.04,8.34,0000 0000 0000 0000 000000
2013-11-06 00:56:10,0.08,0.49,0.00,19.44,20.59,23.54,5.92,31.21,1008.04,2073.03,3364.00,3244.01,3506.22,348.71,323.94,8.35,0000 0000 0000 0000 000000
2013-11-06 00:57:10,0.03,0.49,0.00,19.44,20.59,23.57,6.05,30.75,1008.02,2073.02,3363.93,3243.99,3506.08,350.36,325.38,8.35,0000 0000 0000 0000 000000
2013-11-06 00:58:11,0.03,0.49,0.00,19.46,20.59,23.55,5.89,31.00,1008.07,2073.01,3363.63,3243.99,3506.03,348.65,323.73,8.36,0000 0000 0000 0000 000000
2013-11-06 00:59:11,0.03,0.49,0.00,19.47,20.59,23.54,5.83,30.79,1008.04,2073.01,3363.30,3243.97,3506.01,349.61,324.75,8.36,0000 0000 0000 0000 000000
2013-11-06 01:00:11,0.05,0.49,0.00,19.46,20.59,23.55,5.99,31.42,1008.03,2073.01,3363.13,3243.77,3505.96,350.71,325.77,8.37,0000 0000 0000 0000 000000
2013-11-06 01:01:12,0.07,0.49,0.00,19.48,20.60,23.48,6.04,31.00,1008.24,2073.00,3363.05,3243.40,3505.82,350.97,326.22,8.37,0000 0000 0000 0000 000000
2013-11-06 01:02:12,0.09,0.49,0.00,19.48,20.60,23.59,5.98,31.21,1008.26,2073.01,3363.01,3243.19,3505.41,349.63,324.83,8.38,0000 0000 0000 0000 000000
2013-11-06 01:03:12,0.11,0.49,0.00,19.48,20.61,23.52,5.96,31.00,1008.18,2073.00,3362.98,3243.08,3505.18,350.51,325.61,8.39,0000 0000 0000 0000 000000
2013-11-06 01:04:12,0.04,0.49,0.00,19.49,20.62,23.49,5.97,30.83,1008.25,2073.00,3362.91,3243.03,3505.08,350.48,325.74,8.39,0000 0000 0000 0000 000000
2013-11-06 01:05:13,0.03,0.49,0.00,19.49,20.62,23.55,5.94,31.21,1008.24,2073.00,3362.59,3243.00,3505.03,349.71,324.88,8.40,0000 0000 0000 0000 000000
2013-11-06 01:06:13,0.05,0.49,0.00,19.50,20.62,23.58,6.04,31.08,1008.28,2073.00,3362.24,3242.99,3505.00,350.15,325.29,8.40,0000 0000 0000 0000 000000
2013-11-06 01:07:13,0.05,0.49,0.00,19.53,20.62,23.62,5.94,30.88,1008.29,2073.00,3362.08,3242.84,3504.96,350.61,325.69,8.41,0000 0000 0000 0000 000000
2013-11-06 01:08:13,0.06,0.50,0.00,19.53,20.62,23.60,6.06,30.96,1008.30,2073.00,3362.02,3242.53,3504.73,350.33,325.44,8.42,0000 0000 0000 0000 000000
2013-11-06 01:09:14,0.10,0.50,0.00,19.52,20.63,23.53,6.09,30.96,1008.26,2073.00,3361.96,3242.22,3504.32,350.35,325.45,8.42,0000 0000 0000 0000 000000
2013-11-06 01:10:14,0.11,0.50,0.00,19.52,20.64,23.56,6.02,31.13,1008.18,2073.00,3361.80,3242.10,3504.15,350.22,325.30,8.43,0000 0000 0000 0000 000000
2013-11-06 01:11:14,0.07,0.50,0.00,19.54,20.64,23.57,5.85,30.96,1008.26,2073.00,3361.43,3242.03,3504.06,349.13,324.29,8.43,0000 0000 0000 0000 000000
2013-11-06 01:12:14,0.06,0.50,0.00,19.56,20.64,23.52,6.02,30.96,1008.30,2072.99,3361.16,3242.01,3504.02,350.74,325.79,8.44,0000 0000 0000 0000 000000
2013-11-06 01:13:15,0.03,0.50,0.00,19.57,20.64,23.56,6.02,30.75,1008.26,2072.99,3361.06,3241.99,3504.00,351.61,326.64,8.44,0000 0000 0000 0000 000000
2013-11-06 01:14:15,0.01,0.50,0.00,19.57,20.65,23.60,5.88,30.79,1008.18,2072.99,3361.01,3241.98,3503.96,349.54,324.61,8.45,0000 0000 0000 0000 000000
2013-11-06 01:15:15,0.02,0.50,0.00,19.55,20.65,23.56,5.89,30.75,1008.15,2072.99,3360.98,3241.80,3503.75,349.50,324.45,8.46,0000 0000 0000 0000 000000
2013-11-06 01:16:15,0.09,0.50,0.00,19.55,20.66,23.61,6.03,31.13,1008.03,2072.99,3360.77,3241.47,3503.45,349.77,324.81,8.46,0000 0000 0000 0000 000000
2013-11-06 01:17:16,0.13,0.50,0.00,19.55,20.67,23.59,5.96,30.83,1007.92,2072.99,3360.44,3241.22,3503.19,350.17,325.14,8.47,0000 0000 0000 0000 000000
2013-11-06 01:18:16,0.13,0.50,0.00,19.57,20.67,23.59,5.98,30.92,1007.89,2072.99,3360.19,3241.08,3503.07,349.90,324.74,8.47,0000 0000 0000 0000 000000
2013-11-06 01:19:16,0.06,0.50,0.00,19.59,20.67,23.58,5.84,30.75,1007.89,2072.99,3360.07,3241.03,3503.02,349.84,324.88,8.48,0000 0000 0000 0000 000000
2013-11-06 01:20:16,0.02,0.50,0.00,19.57,20.67,23.64,6.01,30.92,1007.85,2072.99,3360.02,3241.00,3502.97,349.74,324.77,8.49,0000 0000 0000 0000 000000
2013-11-06 01:21:17,0.01,0.50,0.00,19.59,20.67,23.65,6.02,31.04,1007.89,2072.97,3359.98,3241.00,3502.94,349.61,324.57,8.49,0000 0000 0000 0000 000000
2013-11-06 01:22:17,0.02,0.50,0.00,19.59,20.68,23.62,5.99,30.79,1007.88,2072.94,3359.76,3240.92,3502.55,349.00,324.07,8.50,0000 0000 0000 0000 000000
2013-11-06 01:23:17,0.08,0.50,0.00,19.59,20.69,23.60,6.04,30.96,1007.85,2072.94,3359.38,3240.74,3502.22,348.96,324.05,8.50,0000 0000 0000 0000 000000
2013-11-06 01:24:17,0.12,0.50,0.00,19.60,20.69,23.63,5.85,30.75,1007.83,2072.96,3359.15,3240.43,3502.08,349.31,324.61,8.51,0000 0000 0000 0000 000000
2013-11-06 01:25:18,0.11,0.50,0.00,19.62,20.69,23.63,5.93,31.13,1007.83,2072.96,3359.05,3240.22,3502.03,348.42,323.49,8.52,0000 0000 0000 0000 000000
2013-11-06 01:26:18,0.06,0.50,0.00,19.63,20.69,23.64,5.93,30.71,1007.83,2072.96,3359.00,3240.08,3501.99,349.97,324.83,8.52,0000 0000 0000 0000 000000
2013-11-06 01:27:18,0.03,0.50,0.00,19.62,20.70,23.65,5.83,30.58,1007.83,2072.97,3358.98,3240.03,3501.98,348.36,323.35,8.53,0000 0000 0000 0000 000000
2013-11-06 01:28:19,0.00,0.50,0.00,19.63,20.70,23.68,6.01,30.88,1007.83,2072.95,3358.82,3240.01,3501.95,350.33,325.51,8.53,0000 0000 0000 0000 000000
2013-11-06 01:29:19,0.03,0.50,0.00,19.64,20.72,23.59,6.10,31.00,1007.83,2072.93,3358.37,3239.99,3501.59,351.42,326.17,8.54,0000 0000 0000 0000 000000
2013-11-06 01:30:19,0.08,0.50,0.00,19.65,20.72,23.60,5.67,30.29,1007.83,2072.93,3358.13,3239.97,3501.25,348.05,323.32,8.54,0000 0000 0000 0000 000000
2013-11-06 01:31:20,0.09,0.50,0.00,19.68,20.72,23.61,5.98,31.04,1007.75,2072.95,3358.05,3239.84,3501.10,350.22,324.61,8.55,0000 0000 0000 0000 000000
2013-11-06 01:32:20,0.07,0.50,0.00,19.68,20.72,23.66,5.96,30.83,1007.63,2072.96,3358.01,3239.58,3501.03,350.84,325.34,8.56,0000 0000 0000 0000 000000
2013-11-06 01:33:20,0.06,0.51,0.00,19.67,20.72,23.62,5.98,31.17,1007.39,2072.93,3358.00,3239.26,3501.01,350.11,324.78,8.56,0000 0000 0000 0000 000000
2013-11-06 01:34:20,0.04,0.51,0.00,19.67,20.72,23.68,6.06,31.21,1007.36,2072.89,3357.90,3239.11,3500.98,351.19,325.77,8.57,0000 0000 0000 0000 000000
2013-11-06 01:35:21,0.03,0.51,0.00,19.69,20.74,23.66,5.90,31.58,1007.36,2072.90,3357.58,3239.04,3500.88,349.59,324.38,8.57,0000 0000 0000 0000 000000
2013-11-06 01:36:21,0.08,0.51,0.00,19.70,20.74,23.72,5.91,31.96,1007.32,2072.92,3357.28,3239.01,3500.57,348.93,324.19,8.58,0000 0000 0000 0000 000000
2013-11-06 01:37:21,0.08,0.51,0.00,19.69,20.74,23.68,5.93,31.79,1007.30,2072.88,3357.10,3239.00,3500.24,350.18,324.79,8.59,0000 0000 0000 0000 000000
2013-11-06 01:38:21,0.04,0.51,0.00,19.68,20.74,23.69,5.84,31.67,1007.31,2072.86,3357.04,3238.98,3500.09,350.12,324.75,8.59,0000 0000 0000 0000 000000
2013-11-06 01:39:22,0.01,0.51,0.00,19.69,20.75,23.74,6.00,31.21,1007.26,2072.79,3356.98,3238.80,3500.03,350.20,324.87,8.60,0000 0000 0000 0000 000000
2013-11-06 01:40:22,-0.00,0.51,0.00,19.71,20.75,23.72,6.03,31.54,1007.28,2072.68,3356.89,3238.41,3500.00,349.86,324.46,8.60,0000 0000 0000 0000 000000
2013-11-06 01:41:22,0.03,0.51,0.00,19.73,20.76,23.69,5.93,32.13,1007.10,2072.73,3356.50,3238.17,3499.96,349.22,323.90,8.61,0000 0000 0000 0000 000000
2013-11-06 01:42:22,0.16,0.51,0.00,19.74,20.77,23.73,6.06,32.08,1007.06,2072.73,3356.19,3238.06,3499.69,350.20,324.55,8.61,0000 0000 0000 0000 000000
2013-11-06 01:43:23,0.07,0.51,0.00,19.73,20.77,23.66,5.97,31.88,1007.00,2072.58,3356.07,3238.01,3499.27,350.11,324.25,8.62,0000 0000 0000 0000 000000
2013-11-06 01:44:23,-0.03,0.51,0.00,19.73,20.77,23.74,5.98,32.08,1006.86,2072.37,3355.85,3237.99,3499.09,350.35,324.77,8.63,0000 0000 0000 0000 000000
2013-11-06 01:45:23,-0.09,0.51,0.00,19.72,20.77,23.75,5.92,32.25,1006.85,2072.23,3355.52,3237.80,3499.03,350.38,324.79,8.63,0000 0000 0000 0000 000000
2013-11-06 01:46:24,0.06,0.51,0.00,19.74,20.77,23.72,5.96,31.83,1006.85,2072.36,3355.23,3237.55,3499.01,350.27,324.68,8.64,0000 0000 0000 0000 000000
2013-11-06 01:47:24,0.18,0.51,0.00,19.74,20.78,23.75,6.01,31.50,1006.85,2072.47,3355.08,3237.25,3498.96,349.29,323.76,8.64,0000 0000 0000 0000 000000
2013-11-06 01:48:24,0.15,0.51,0.00,19.76,20.79,23.74,6.18,31.88,1006.83,2072.45,3355.02,3237.10,3498.76,350.52,324.87,8.65,0000 0000 0000 0000 000000
2013-11-06 01:49:24,0.06,0.51,0.00,19.79,20.79,23.73,5.96,31.92,1006.86,2072.40,3355.00,3237.03,3498.33,349.85,324.23,8.66,0000 0000 0000 0000 000000
2013-11-06 01:50:25,0.07,0.51,0.00,19.79,20.79,23.70,5.89,31.75,1006.84,2072.49,3354.93,3237.01,3498.13,349.91,324.56,8.66,0000 0000 0000 0000 000000
2013-11-06 01:51:25,0.07,0.51,0.00,19.78,20.79,23.78,6.03,32.38,1006.85,2072.48,3354.67,3237.00,3498.04,349.61,324.49,8.67,0000 0000 0000 0000 000000
2013-11-06 01:52:25,-0.01,0.51,0.00,19.79,20.79,23.72,6.09,32.54,1006.78,2072.30,3354.28,3236.97,3498.01,351.09,325.46,8.67,0000 0000 0000 0000 000000
2013-11-06 01:53:25,-0.06,0.51,0.00,19.79,20.81,23.74,6.01,32.29,1006.78,2072.20,3354.11,3236.81,3497.96,349.73,324.09,8.68,0000 0000 0000 0000 000000
2013-11-06 01:54:26,0.01,0.51,0.00,19.79,20.82,23.76,6.05,32.38,1006.81,2072.13,3354.02,3236.40,3497.72,350.21,324.48,8.68,0000 0000 0000 0000 000000
2013-11-06 01:55:26,0.07,0.51,0.00,19.81,20.82,23.81,5.96,32.21,1006.62,2072.07,3353.91,3236.16,3497.30,350.01,324.06,8.69,0000 0000 0000 0000 000000
2013-11-06 01:56:26,0.07,0.51,0.00,19.82,20.82,23.82,5.96,32.13,1006.77,2072.06,3353.76,3236.05,3497.11,349.63,324.08,8.70,0000 0000 0000 0000 000000
2013-11-06 01:57:26,0.04,0.51,0.00,19.83,20.82,23.80,5.83,32.33,1006.65,2072.03,3353.48,3236.02,3497.04,349.76,324.02,8.70,0000 0000 0000 0000 000000
2013-11-06 01:58:27,0.04,0.51,0.00,19.82,20.82,23.77,6.00,32.42,1006.62,2072.05,3353.18,3235.98,3497.00,351.19,325.36,8.71,0000 0000 0000 0000 000000
2013-11-06 01:59:27,0.05,0.51,0.00,19.82,20.83,23.83,5.93,32.13,1006.68,2072.05,3353.06,3235.90,3496.95,348.78,323.15,8.71,0000 0000 0000 0000 000000
2013-11-06 02:00:27,0.05,0.51,0.00,19.84,20.84,23.76,5.82,32.08,1006.64,2072.09,3352.98,3235.61,3496.78,349.14,323.45,8.72,0000 0000 0000 0000 000000
2013-11-06 02:01:27,0.11,0.51,0.00,19.85,20.84,23.83,5.94,32.21,1006.67,2072.07,3352.79,3235.30,3496.45,350.08,324.75,8.73,0000 0000 0000 0000 000000
2013-11-06 02:02:28,0.13,0.51,0.00,19.85,20.84,23.84,5.83,31.96,1006.80,2072.04,3352.38,3235.11,3496.17,349.10,322.92,8.73,0000 0000 0000 0000 000000
2013-11-06 02:03:28,0.10,0.52,0.00,19.85,20.84,23.81,6.13,32.75,1006.54,2072.02,3352.15,3235.04,3496.06,350.71,324.88,8.74,0000 0000 0000 0000 000000
2013-11-06 02:04:28,0.05,0.52,0.00,19.87,20.84,23.84,5.95,32.88,1006.40,2072.03,3352.06,3234.99,3496.02,349.47,324.05,8.74,0000 0000 0000 0000 000000
2013-11-06 02:05:29,0.02,0.52,0.00,19.88,20.85,23.82,5.82,32.46,1006.46,2072.02,3352.02,3234.99,3495.89,349.59,323.55,8.75,0000 0000 0000 0000 000000
2013-11-06 02:06:29,0.02,0.52,0.00,19.88,20.86,23.82,5.96,31.88,1006.50,2072.01,3351.95,3234.75,3495.45,350.21,324.35,8.76,0000 0000 0000 0000 000000
2013-11-06 02:07:29,0.12,0.52,0.00,19.88,20.87,23.77,5.90,31.79,1006.51,2072.00,3351.65,3234.32,3495.16,349.25,323.58,8.76,0000 0000 0000 0000 000000
2013-11-06 02:08:30,0.17,0.52,0.00,19.89,20.87,23.82,5.99,31.38,1006.46,2072.01,3351.29,3234.13,3495.05,350.77,325.13,8.77,0000 0000 0000 0000 000000
2013-11-06 02:09:30,0.11,0.52,0.00,19.92,20.87,23.85,5.93,31.58,1006.61,2072.02,3351.10,3234.04,3494.98,350.68,324.77,8.77,0000 0000 0000 0000 000000
2013-11-06 02:10:30,0.05,0.52,0.00,19.94,20.87,23.86,5.93,31.29,1006.89,2072.00,3351.04,3233.99,3494.81,349.72,323.81,8.78,0000 0000 0000 0000 000000
2013-11-06 02:11:31,0.02,0.52,0.00,19.94,20.87,23.86,5.91,31.54,1006.75,2072.00,3350.98,3233.94,3494.44,350.01,324.34,8.78,0000 0000 0000 0000 000000
2013-11-06 02:12:31,0.06,0.52,0.00,19.94,20.89,23.88,5.95,31.29,1006.80,2072.00,3350.73,3233.85,3494.22,348.97,323.23,8.79,0000 0000 0000 0000 000000
2013-11-06 02:13:31,0.09,0.52,0.00,19.95,20.89,23.90,5.96,31.50,1006.63,2072.00,3350.34,3233.52,3494.11,349.26,323.44,8.80,0000 0000 0000 0000 000000
2013-11-06 02:14:31,0.13,0.52,0.00,19.95,20.89,23.87,6.02,31.83,1006.75,2072.00,3350.12,3233.21,3494.03,350.23,324.37,8.80,0000 0000 0000 0000 000000
2013-11-06 02:15:32,0.10,0.52,0.00,19.98,20.89,23.89,5.95,31.21,1006.83,2071.99,3350.03,3233.08,3493.97,349.56,323.74,8.81,0000 0000 0000 0000 000000
2013-11-06 02:16:32,0.05,0.52,0.00,20.02,20.89,23.82,5.99,31.58,1006.84,2071.99,3349.93,3233.03,3493.85,350.42,324.30,8.81,0000 0000 0000 0000 000000
2013-11-06 02:17:32,0.04,0.52,0.00,19.99,20.90,23.86,5.93,32.21,1006.79,2071.99,3349.77,3233.00,3493.48,349.59,323.48,8.82,0000 0000 0000 0000 000000
2013-11-06 02:18:33,0.07,0.52,0.00,20.00,20.91,23.84,5.80,31.33,1006.79,2071.99,3349.36,3232.95,3493.18,349.40,324.08,8.83,0000 0000 0000 0000 000000
2013-11-06 02:19:33,0.10,0.52,0.00,20.01,20.92,23.88,5.83,31.75,1006.80,2071.99,3349.13,3232.65,3493.07,348.77,322.98,8.83,0000 0000 0000 0000 000000
2013-11-06 02:20:33,0.11,0.52,0.00,20.02,20.92,23.92,6.01,31.71,1006.61,2071.98,3349.03,3232.29,3493.02,349.55,323.63,8.84,0000 0000 0000 0000 000000
2013-11-06 02:21:33,0.08,0.52,0.00,20.04,20.92,23.93,6.13,31.96,1006.78,2071.99,3349.00,3232.11,3493.00,350.13,324.20,8.84,0000 0000 0000 0000 000000
2013-11-06 02:22:34,0.04,0.52,0.00,20.05,20.92,23.95,6.01,31.54,1006.83,2071.99,3348.97,3232.04,3492.92,350.40,324.45,8.85,0000 0000 0000 0000 000000
2013-11-06 02:23:34,0.04,0.52,0.00,20.06,20.92,23.92,5.93,31.50,1006.86,2071.98,3348.62,3232.00,3492.52,349.15,323.30,8.85,0000 0000 0000 0000 000000
2013-11-06 02:24:34,0.10,0.52,0.00,20.06,20.94,23.90,5.91,31.83,1006.85,2071.97,3348.24,3231.98,3492.19,349.54,323.65,8.86,0000 0000 0000 0000 000000
2013-11-06 02:25:34,0.08,0.53,0.00,20.03,20.94,23.93,5.88,31.33,1006.85,2071.98,3348.08,3231.80,3492.06,350.06,324.15,8.87,0000 0000 0000 0000 000000
2013-11-06 02:26:35,0.08,0.53,0.00,20.01,20.94,23.97,5.99,31.67,1006.84,2071.97,3348.02,3231.47,3492.00,349.38,323.74,8.87,0000 0000 0000 0000 000000
2013-11-06 02:27:35,0.08,0.53,0.00,20.00,20.94,23.96,5.99,31.79,1006.84,2071.99,3347.93,3231.20,3491.96,350.08,324.21,8.88,0000 0000 0000 0000 000000
2013-11-06 02:28:35,0.09,0.53,0.00,19.99,20.94,23.94,6.00,32.00,1006.85,2071.98,3347.63,3231.08,3491.64,350.82,324.91,8.88,0000 0000 0000 0000 000000
2013-11-06 02:29:35,0.09,0.53,0.00,19.98,20.95,23.92,6.09,31.67,1006.90,2071.99,3347.34,3231.03,3491.30,351.02,325.11,8.89,0000 0000 0000 0000 000000
2013-11-06 02:30:35,0.09,0.53,0.00,19.96,20.97,23.98,5.92,31.46,1006.99,2071.99,3347.13,3231.00,3491.13,349.21,323.50,8.90,0000 0000 0000 0000 000000
2013-11-06 02:31:36,0.04,0.53,0.00,19.98,20.97,23.98,6.06,31.88,1006.88,2071.98,3347.04,3231.00,3491.06,350.71,324.96,8.90,0000 0000 0000 0000 000000
2013-11-06 02:32:36,0.01,0.53,0.00,19.99,20.97,23.93,6.03,31.38,1007.15,2071.96,3347.01,3230.93,3491.02,350.51,324.71,8.91,0000 0000 0000 0000 000000
2013-11-06 02:33:36,-0.01,0.53,0.00,19.98,20.97,23.97,5.93,31.33,1007.03,2071.87,3346.89,3230.58,3490.99,350.70,324.67,8.91,0000 0000 0000 0000 000000
2013-11-06 02:34:37,0.07,0.53,0.00,19.99,20.98,23.97,6.01,31.54,1006.88,2071.85,3346.44,3230.25,3490.80,350.13,324.01,8.92,0000 0000 0000 0000 000000
2013-11-06 02:35:37,0.13,0.53,0.00,19.98,20.99,23.96,5.98,31.46,1006.94,2071.85,3346.17,3230.11,3490.38,349.32,323.81,8.93,0000 0000 0000 0000 000000
2013-11-06 02:36:37,0.11,0.53,0.00,19.97,20.99,24.02,5.82,30.96,1006.87,2071.87,3346.06,3230.05,3490.15,349.38,323.60,8.93,0000 0000 0000 0000 000000
2013-11-06 02:37:37,0.04,0.53,0.00,19.95,20.99,24.01,5.92,31.25,1006.84,2071.77,3346.02,3230.01,3490.06,349.86,323.98,8.94,0000 0000 0000 0000 000000